Location: Mentone
(34.5413°N, 85.5351°W)
Time: 04:14:03
(UTC-06:00)

Centaur AC-72 - Visible Passes

Search period start: 21 January 2018 00:00
Search period end: 31 January 2018 00:00
Orbit: 1053 x 35303 km, 18.9° (Epoch: 19 January)

Date Brightness Start Highest point End Pass type
(mag) Time Alt. Az. Time Alt. Az. Time Alt. Az.
21 Jan 7.5 11:17:06 10° W 13:09:17 35° W 18:21:43 10° W visible
22 Jan 6.9 08:07:22 10° WSW 10:37:01 68° SSW 17:54:30 10° SSE visible
23 Jan 6.6 05:13:38 10° SSW 11:58:37 67° SSE 15:02:02 10° SE visible
24 Jan 6.6 02:33:43 10° SE 02:47:27 12° ESE 11:53:12 10° ESE visible
25 Jan 7.6 11:00:02 10° W 12:52:49 36° W 18:13:29 10° W visible
26 Jan 7.0 07:51:14 10° WSW 10:21:04 69° SSW 17:38:31 10° SSE visible
27 Jan 6.6 04:57:42 10° SSW 05:44:14 47° SE 14:45:50 10° SE visible
28 Jan 6.5 02:17:57 10° SE 02:30:09 12° ESE 11:36:01 10° ESE visible
29 Jan 7.6 10:43:03 10° W 12:36:17 37° W 18:04:51 10° W visible
